Hourly Data Report for October 04, 2017

All times are specified in Local Standard Time (LST). Add 1 hour to adjust for Daylight Saving Time where and when it is observed.

MONCTON INTL A
NEW BRUNSWICK

46°06'44.000" N
64°40'43.000" W
70.70 m
8103201
71705
YQM

Download Data

Hourly Data (October 2017)
Hourly Data Report for October 4, 2017
Temp Definition
°C
Dew Point Temp Definition
°C
Rel Hum Definition
%
Wind Dir Definition
10's deg

Wind Spd Definition
km/h
Visibility Definition
km
Stn Press Definition
kPa
Hmdx Definition


Wind Chill Definition


Weather Definition


TIME
00:00 Legend Double Dagger 6.3 5.1 92 20 12 24.1 101.89     LegendNANA
01:00 Legend Double Dagger 6.1 5.3 95 20 12 24.1 101.82     LegendNANA
02:00 Legend Double Dagger 5.9 5.3 96 22 12 24.1 101.75     Mainly Clear
03:00 Legend Double Dagger 6.2 5.6 96 21 15 24.1 101.70     LegendNANA
04:00 Legend Double Dagger 6.1 5.8 97 20 15 24.1 101.60     LegendNANA
05:00 Legend Double Dagger 7.3 6.8 96 23 18 24.1 101.52     Clear
06:00 Legend Double Dagger 8.3 7.7 96 23 21 24.1 101.46     LegendNANA
07:00 Legend Double Dagger 9.4 8.5 94 23 23 24.1 101.41     LegendNANA
08:00 Legend Double Dagger 10.7 9.5 92 22 19 24.1 101.37     Mostly Cloudy
09:00 Legend Double Dagger 13.6 10.3 80 23 27 24.1 101.34     LegendNANA
10:00 Legend Double Dagger 16.2 10.8 70 23 28 24.1 101.27     LegendNANA
11:00 Legend Double Dagger 18.3 10.3 59 24 30 24.1 101.21     Mostly Cloudy
12:00 Legend Double Dagger 19.3 10.6 57 22 31 24.1 101.10     LegendNANA
13:00 Legend Double Dagger 20.1 10.5 53 21 32 24.1 100.90     LegendNANA
14:00 Legend Double Dagger 21.8 11.1 50 22 31 24.1 100.87     Mostly Cloudy
15:00 Legend Double Dagger 22.5 12.1 51 24 28 24.1 100.80 25   LegendNANA
16:00 Legend Double Dagger 22.7 12.6 52 22 25 24.1 100.70 25   LegendNANA
17:00 Legend Double Dagger 21.0 11.6 54 20 17 24.1 100.64     Mostly Cloudy
18:00 Legend Double Dagger 18.3 11.8 66 20 22 24.1 100.56     LegendNANA
19:00 Legend Double Dagger 17.1 10.8 66 20 24 24.1 100.54     LegendNANA
20:00 Legend Double Dagger 16.7 9.0 60 21 24 24.1 100.51     Mainly Clear
21:00 Legend Double Dagger 15.4 9.5 67 19 22 24.1 100.41     LegendNANA
22:00 Legend Double Dagger 15.5 9.9 69 20 22 24.1 100.34     LegendNANA
23:00 Legend Double Dagger 15.4 9.8 69 19 22 24.1 100.27     Mainly Clear

Notes on Data Quality.

Legend

  • E = Estimated
  • M = Missing
  • NA = Not Available
  • ‡ = Partner data that is not subject to review by the National Climate Archives
Date modified: